RH
92 92 91 92 92 92 91 92 95 89 85 89 99 100 96 97 94 99 90 61 70 62 53 45 42 44 44 59 58 52 74 74 62 50 41 31 24 20 20 24 24 22 22 23 28
91 93 93 92 92 92 92 94 94 95 81 81 85 88 94 95 94 91 68 62 74 77 64 60 58 49 57 61 68 72 84 68 44 41 38 32 26 24 27 30 29 28 24 22 29
91 94 94 92 92 90 93 90 94 94 94 86 79 77 88 86 86 79 60 76 78 79 76 73 66 57 62 56 69 68 76 56 44 38 35 33 31 26 30 34 33 31 29 26 24
92 93 93 94 93 92 94 93 93 93 91 88 91 79 78 81 89 64 60 67 71 76 82 75 69 66 69 81 58 79 60 55 50 44 41 38 30 33 33 34 30 32 30 28 29
93 95 94 94 95 88 93 86 90 94 92 90 88 84 81 87 83 55 48 49 55 71 74 77 79 71 69 65 64 70 58 50 45 44 40 37 39 37 36 32 30 29 30 32 32
95 97 95 93 89 88 87 85 88 88 85 77 83 85 86 95 51 50 53 51 52 68 75 75 74 62 65 58 58 56 54 52 46 44 42 39 39 39 37 33 33 31 32 34 30
88 94 91 85 87 86 87 95 92 88 87 82 83 89 88 74 47 48 47 53 52 49 46 67 64 69 68 66 52 57 70 56 55 47 50 43 44 43 35 33 34 34 32 28 31
74 85 89 84 81 81 82 87 94 91 84 80 73 91 93 56 56 50 50 50 49 46 45 42 44 53 69 64 64 75 70 81 55 51 47 46 59 41 35 37 38 36 33 34 33
80 81 88 87 75 85 81 86 76 79 78 84 79 86 85 52 63 59 51 46 44 42 41 40 42 59 65 79 85 85 87 84 69 50 50 47 54 42 36 36 40 37 32 38 38
84 81 86 89 75 82 86 92 77 74 82 94 81 75 68 57 53 56 52 49 48 45 48 54 63 81 90 88 86 78 79 76 82 59 54 60 53 43 39 37 39 36 29 42 42
80 88 84 91 74 79 90 87 88 92 94 87 78 60 44 50 47 52 51 50 50 56 72 63 85 84 82 78 72 66 74 77 70 53 57 55 56 47 39 38 41 35 32 45 47
77 86 78 91 72 81 91 88 76 81 94 81 72 66 53 49 60 52 48 62 64 77 73 76 87 67 62 67 75 78 88 84 67 60 60 58 55 44 40 38 39 38 37 48 50
80 84 82 88 79 91 90 77 80 78 93 81 81 78 66 58 66 60 52 58 69 82 79 84 68 56 61 66 76 78 88 80 74 62 64 66 68 51 40 36 35 35 35 43 46
81 87 88 84 90 86 96 72 86 85 100 85 91 83 71 70 81 52 48 54 67 82 73 79 58 61 68 71 66 82 60 61 66 72 89 68 82 62 45 40 37 37 43 46 48
82 90 87 62 68 85 87 82 88 91 97 79 86 70 69 84 73 72 52 60 77 70 74 80 71 71 71 66 60 70 52 57 59 72 80 79 88 64 43 42 38 42 46 45 46
85 91 87 68 83 85 84 86 80 91 94 91 85 91 90 89 76 71 65 62 75 89 79 71 61 66 61 53 53 63 69 71 75 80 96 88 86 66 50 41 36 37 44 44 47
89 96 88 89 90 92 81 85 96 96 61 94 89 84 77 82 86 86 93 96 98 99 100 97 93 72 69 79 71 76 84 86 91 96 88 67 98 79 40 36 32 34 44 44 48
92 99 96 90 86 82 73 95 98 67 76 81 84 75 97 75 88 86 98 100 94 99 97 96 90 88 75 76 73 84 80 91 87 84 73 78 96 60 43 32 31 36 41 46 53
98 100 100 100 94 81 88 99 85 67 77 94 96 100 100 92 85 93 92 99 73 90 88 99 93 70 67 63 62 76 90 64 96 86 99 89 61 36 33 39 41 45 46 50 58
100 99 97 96 96 85 96 91 80 67 82 92 100 96 89 80 93 98 95 81 74 58 61 81 96 65 71 68 70 72 63 94 100 99 94 75 51 47 39 44 45 47 49 52 56
99 99 100 100 98 96 99 92 72 70 78 95 97 99 93 86 90 90 76 60 64 57 54 71 96 91 95 97 83 91 93 79 93 87 90 88 61 41 38 38 46 47 48 52 56
97 99 100 100 98 97 98 79 69 80 76 88 93 94 86 64 84 69 68 46 53 58 66 88 99 99 88 80 72 60 80 72 93 99 90 58 51 34 37 37 41 45 47 49 52
95 99 100 87 99 99 86 79 76 87 88 93 94 79 65 53 77 59 64 50 67 70 88 94 99 94 96 94 84 80 78 66 70 98 78 58 50 38 40 39 37 46 48 50 54
97 97 99 100 94 91 92 89 93 85 92 87 86 70 70 59 54 53 52 56 54 65 77 90 98 99 98 95 83 83 72 80 93 98 66 51 48 44 41 40 41 49 49 51 52
95 95 82 98 96 93 83 87 94 97 92 87 88 86 64 53 44 56 49 49 59 65 80 91 100 98 94 86 78 76 80 91 98 72 60 44 41 45 45 43 42 50 51 52 53
98 96 85 87 82 95 92 94 89 93 92 91 91 60 60 62 46 50 55 56 56 74 90 87 99 95 93 73 73 81 84 69 61 57 49 52 48 33 40 44 44 53 50 51 52
94 81 76 90 84 92 90 86 85 81 86 82 84 75 73 66 58 59 41 42 44 56 63 72 83 93 69 76 71 82 70 67 59 52 48 57 46 35 41 41 44 52 49 52 55
Wind_Speed
6 5 5 5 5 6 6 6 7 6 5 5 2 7 10 9 7 7 7 8 1 6 6 9 9 11 8 4 5 2 3 8 9 10 10 7 4 3 4 3 1 4 4 7 20
7 6 6 5 5 5 5 6 6 6 5 5 4 3 4 6 7 12 19 16 13 8 8 6 6 10 3 3 4 6 5 9 5 9 7 10 4 4 2 2 3 5 7 13 15
9 7 7 6 5 5 4 4 4 5 5 4 4 4 3 1 3 8 15 25 18 9 8 6 12 6 3 5 5 4 10 4 5 13 11 8 3 3 2 3 5 6 5 3 5
9 9 8 7 6 4 4 4 3 3 3 3 3 3 3 4 7 3 1 6 13 17 11 4 5 2 2 4 6 11 13 12 12 17 11 7 4 4 6 7 5 8 7 4 7
11 10 10 8 8 6 6 4 3 3 3 3 2 2 3 5 7 1 7 7 6 11 15 8 6 3 4 4 5 13 14 14 17 18 18 9 10 9 6 7 8 10 10 11 9
13 12 11 10 9 8 6 6 4 4 3 3 3 2 2 11 10 14 10 3 4 10 14 11 6 6 7 7 10 6 9 16 19 15 11 16 8 5 8 8 9 12 12 10 9
14 14 12 12 10 9 6 6 5 4 5 3 3 3 6 12 8 3 18 16 10 7 2 18 20 7 4 4 6 8 12 14 17 16 14 11 16 14 10 7 10 13 11 4 5
15 15 14 12 12 9 7 6 6 6 5 5 3 4 6 7 20 23 7 13 13 10 12 14 7 6 7 5 7 5 6 14 6 8 9 11 20 11 10 10 13 12 8 9 7
15 14 15 12 11 11 9 8 7 7 6 5 4 5 7 5 16 19 17 6 6 9 14 14 7 4 3 4 3 4 9 8 6 7 6 12 20 10 9 9 10 11 10 8 7
17 16 16 13 10 10 8 9 6 8 4 6 7 1 6 5 6 20 14 17 7 1 4 4 4 5 1 5 13 9 9 10 8 5 11 16 16 11 10 13 11 10 8 9 9
18 16 15 15 11 10 9 3 1 2 7 8 8 5 3 5 4 12 17 11 10 3 6 6 7 12 13 14 6 8 10 12 8 10 11 20 16 17 14 11 9 9 6 9 9
18 17 15 16 12 11 11 4 2 4 5 13 16 15 19 4 4 6 14 9 12 15 6 7 17 14 9 11 10 12 13 20 14 15 11 14 22 20 15 14 11 10 8 11 9
19 18 17 14 12 14 17 10 5 1 3 6 13 9 13 9 12 9 13 11 11 11 12 17 4 17 14 13 13 16 16 16 16 16 17 10 15 22 12 18 13 9 8 16 19
19 18 19 17 9 13 7 15 13 5 3 3 3 4 4 4 5 18 21 13 8 17 13 14 19 12 14 17 13 16 16 16 16 11 11 4 9 16 18 14 13 11 12 16 13
20 21 23 24 8 10 10 14 14 4 4 6 5 2 2 7 6 8 19 16 17 13 11 8 9 16 19 21 14 15 10 12 12 16 14 19 7 8 11 19 15 12 15 18 17
23 23 24 24 5 12 19 21 8 3 8 6 4 4 3 8 4 1 3 9 2 10 14 17 2 4 11 15 14 2 4 9 9 11 12 18 11 5 9 17 21 8 15 17 16
26 27 31 21 8 23 24 7 4 4 1 4 4 6 9 7 6 7 4 12 7 5 7 4 11 3 2 3 4 6 5 5 5 8 13 15 9 16 7 12 18 18 20 19 17
28 29 33 20 19 29 12 3 5 5 4 4 3 7 6 6 7 9 3 6 13 5 3 5 5 12 9 15 7 11 13 6 8 7 8 10 10 10 15 9 10 17 22 20 17
28 31 25 20 33 30 5 3 6 5 4 4 2 4 4 7 7 9 10 4 7 16 7 6 6 3 5 8 17 7 10 21 6 4 2 6 9 3 2 8 16 18 19 19 17
20 12 18 32 37 20 3 4 4 2 6 4 7 9 6 8 8 8 9 8 8 16 11 2 5 3 12 12 12 11 10 9 4 5 7 7 5 5 5 12 15 19 19 17 16
12 5 20 37 26 4 3 6 4 5 7 5 5 4 7 5 7 5 7 6 12 13 17 7 5 3 2 8 17 9 10 8 5 6 2 5 5 6 11 14 17 17 18 18 18
5 4 28 37 5 2 3 6 3 5 9 10 6 9 6 9 9 5 10 5 7 7 17 10 4 5 14 11 10 15 11 9 5 6 10 4 4 2 10 10 14 16 17 16 16
6 3 25 27 5 4 3 6 7 8 9 7 8 13 11 8 3 12 6 9 17 10 13 8 4 4 4 6 5 16 15 14 15 11 8 4 3 3 8 8 9 14 13 14 15
4 4 3 3 0 6 6 8 6 7 14 9 4 10 9 7 10 5 10 4 16 14 15 13 6 7 3 2 5 8 19 12 10 5 3 2 6 3 5 8 8 12 15 16 17
1 3 4 5 7 5 10 4 8 5 10 8 6 15 6 5 6 5 4 4 12 17 13 4 5 5 13 17 12 11 13 17 22 12 4 4 6 8 9 9 9 11 14 15 15
4 3 2 5 10 12 9 7 8 6 5 4 8 8 12 10 6 6 7 4 6 11 10 9 4 8 7 8 14 11 13 17 10 5 3 5 3 4 4 6 7 13 17 17 15
2 2 3 7 9 7 6 12 15 12 11 14 13 8 9 10 9 0 7 6 5 10 8 6 3 5 3 11 7 1 18 9 5 1 4 3 5 4 5 9 9 9 14 15 13
Wind_Direction
278 289 302 312 326 329 332 337 337 323 322 329 312 227 244 236 236 237 242 215 113 273 289 307 297 293 282 236 257 337 228 232 223 233 253 285 279 220 155 132 326 261 195 209 169
281 280 287 299 318 324 333 335 330 329 310 296 302 304 248 235 232 240 249 248 244 273 290 323 314 330 231 228 237 192 210 230 197 230 243 275 241 278 120 10 299 324 352 167 167
278 274 279 289 299 301 315 324 323 324 328 297 280 267 267 273 282 235 260 240 236 237 266 292 296 310 251 222 221 247 236 253 236 256 263 270 266 191 344 281 234 258 289 199 178
267 265 267 272 280 280 291 305 320 318 328 315 289 278 238 188 238 169 272 165 220 227 230 272 286 267 265 251 242 255 249 242 258 272 270 271 274 250 188 222 242 272 263 254 270
254 254 255 260 267 269 277 279 294 311 335 301 297 244 152 226 248 214 103 83 135 197 213 209 252 230 234 256 296 249 247 247 236 241 256 251 248 242 251 258 286 288 292 284 277
251 249 251 248 253 263 260 273 275 282 286 302 279 269 211 246 261 232 256 229 149 172 202 217 226 231 275 231 251 292 270 256 250 247 262 257 243 209 242 233 257 259 262 267 257
255 244 249 250 243 248 252 266 269 268 274 266 279 226 240 229 248 335 231 230 222 271 280 218 232 233 345 300 307 270 273 268 254 247 245 269 262 237 237 220 238 255 254 211 175
256 244 244 245 235 237 243 257 251 265 277 272 261 204 245 243 259 259 263 228 230 244 259 273 285 280 213 289 327 294 272 248 260 250 253 236 258 246 245 225 241 247 243 187 169
248 243 242 240 234 233 236 239 247 269 252 235 228 191 260 272 232 241 234 228 233 224 230 251 256 223 277 213 258 255 265 270 284 246 253 235 252 243 241 240 246 263 198 195 140
247 241 232 231 226 230 229 219 247 279 257 193 251 282 267 233 206 226 226 223 225 295 191 226 211 207 149 203 229 235 233 247 243 228 239 260 260 242 237 232 244 234 199 177 147
244 237 229 218 220 207 195 172 26 230 203 205 187 218 240 213 184 194 208 215 230 235 225 232 213 215 216 227 225 269 278 271 273 241 221 234 246 252 241 239 241 238 207 162 150
237 223 219 207 202 194 193 174 208 106 272 228 248 236 256 251 281 212 183 188 204 214 201 252 240 216 220 227 235 244 265 267 286 270 246 241 240 241 226 237 227 221 183 159 148
228 216 198 195 187 186 194 182 186 326 266 211 228 243 235 235 229 221 182 201 200 203 205 219 180 202 209 222 223 230 230 251 261 293 294 260 262 249 242 222 223 218 173 172 158
221 208 187 174 177 190 195 215 229 192 275 199 223 261 200 125 261 208 205 186 217 205 207 240 238 244 215 234 215 240 232 248 257 275 260 226 259 251 226 219 217 218 162 169 160
215 199 187 178 158 165 162 165 175 141 300 149 161 272 346 183 131 212 225 216 214 197 184 207 173 205 223 229 209 252 243 263 253 262 272 265 253 260 208 228 222 215 172 167 164
208 197 187 186 146 174 140 136 142 105 249 162 140 184 181 195 241 76 257 211 207 239 232 233 79 206 228 230 220 253 310 304 284 277 248 239 251 228 211 213 222 177 172 159 156
203 197 188 179 171 156 140 133 92 201 168 171 200 191 207 201 219 199 203 203 201 195 203 167 241 250 147 171 224 172 214 235 219 226 234 195 205 259 237 220 200 170 167 158 150
200 196 186 177 179 154 139 86 187 205 214 120 166 209 214 192 221 217 201 227 204 224 114 181 276 188 185 210 190 190 184 220 205 217 224 201 198 234 241 210 149 154 153 148 147
190 187 168 179 171 163 138 184 205 206 115 151 139 220 199 213 223 219 222 233 211 201 177 180 239 145 189 183 195 186 203 217 310 259 213 186 237 266 137 101 131 141 146 152 149
177 141 167 171 170 154 162 207 225 138 126 138 216 196 220 199 196 198 187 196 212 205 202 166 275 183 253 206 223 224 157 185 196 241 207 213 197 193 191 150 146 150 153 152 150
140 148 162 164 153 164 197 196 213 171 135 182 215 220 243 176 194 207 217 242 199 195 197 180 224 164 103 228 188 185 192 193 215 234 242 159 250 205 176 165 156 161 161 158 158
140 146 157 152 158 184 186 183 145 190 191 214 242 241 250 191 192 250 214 224 126 146 188 195 231 228 240 235 237 182 198 177 213 177 228 148 270 341 159 154 151 164 166 159 153
130 110 163 167 178 174 181 217 217 208 201 200 222 218 202 189 205 219 200 242 138 145 169 171 233 277 213 167 193 181 185 206 199 277 271 122 217 348 111 137 155 151 154 150 148
126 139 137 188 99 179 196 222 217 206 240 231 239 266 247 271 201 242 217 159 158 161 173 168 227 232 283 4 164 201 190 170 209 242 233 102 127 106 126 145 145 149 156 155 157
153 135 149 157 209 197 190 212 204 209 212 215 230 225 228 241 201 214 203 182 177 177 169 174 261 238 256 246 239 168 188 201 222 242 74 176 131 189 181 176 164 150 146 148 157
127 143 143 164 194 210 212 196 229 189 222 198 230 199 226 236 214 200 185 179 179 161 155 202 266 298 348 149 177 201 206 203 221 218 141 122 343 201 136 101 135 154 157 164 165
107 62 138 154 176 177 203 215 226 223 207 229 236 248 274 254 258 353 214 185 203 169 173 172 266 327 353 170 164 157 212 204 215 123 150 121 220 120 146 163 165 158 160 161 162